INTELSAT 22 (IS-22)

Last updated on Wed Sep 09 2026 00:02:59 GMT+0000 (Coordinated Universal Time)

1 38098U 12011A 26251.53169816 -.00000080 00000+0 00000+0 0 9995 2 38098 0.0150 130.1223 0001797 31.2270 89.7525 1.00271606 8026
UTC large
Height (km)
Speed (km/s)
/
Latitude / Longitude
Inclination (degrees)
Orbital Period (minutes)
Azimuth
Elevation
Range (km)
Doppler Factor

Next 0 passes for location: London (51.5072 / 0.1276)

No passes found over London.
INTELSAT 22 (IS-22)